Roswell, NM

6:52 PM MST on February 06, 2016 (GMT -0700)
Roswell Industrial

Weather History for KROW - August, 2013

Change the Weather History Date:

Thursday, August 8, 2013

  Actual Average Record
Temperature  
Mean Temperature 83 °F 80 °F  
Max Temperature 98 °F 92 °F 107 °F (2011)
Min Temperature 67 °F 67 °F 54 °F (1990)
Degree Days  
Heating Degree Days 0 0  
Month to date heating degree days 0 0  
Since 1 June heating degree days 0 1  
Since 1 July heating degree days 0 0  
Cooling Degree Days 18 15  
Month to date cooling degree days 162 120  
Year to date cooling degree days 1502 1218  
Since 1 June cooling degree days 1179 993  
Growing Degree Days 32 (Base 50)    
Moisture  
Dew Point 50 °F    
Average Humidity 35    
Maximum Humidity 54    
Minimum Humidity 16    
Precipitation  
Precipitation 0.00 in 0.07 in 2.45 in (1984)
Month to date precipitation T 0.53  
Year to date precipitation 3.84 7.49  
Sea Level Pressure  
Sea Level Pressure 29.76 in    
Wind  
Wind Speed 9 mph (NW)    
Max Wind Speed 23 mph    
Max Gust Speed 28 mph    
Visibility 10 miles    
Events      
T = Trace of Precipitation, MM = Missing Value Source: NWS Daily Summary

Daily Weather History Graph

Daily Weather History Graph

Search for Another Location

Airport or City:

Trip Planner

Search our weather history database for the weather conditions in past years. The results will help you decide how hot, cold, wet, or windy it might be!

Date:

Astronomy

Aug. 08, 2013 Rise Set
Actual Time 6:16 AM MDT 7:50 PM MDT
Civil Twilight 5:49 AM MDT 8:17 PM MDT
Nautical Twilight 5:17 AM MDT 8:49 PM MDT
Astronomical Twilight 4:43 AM MDT 9:22 PM MDT
Moon 7:56 AM MDT (8/8) 8:41 PM MDT (8/8)
Length of Visible Light 14h 27m
Length of Day
13h 34m
Waxing Crescent, 3% of the Moon is Illuminated
Aug 8
Waxing Crescent
Aug 14
First Quarter
Aug 20
Full
Aug 28
Last Quarter
Sep 5
New

Hourly Weather History & Observations

Time (MDT) Temp. Heat Index Dew Point Humidity Pressure Visibility Wind Dir Wind Speed Gust Speed Precip Events Conditions
12:51 AM 79.0 °F - 48.9 °F 35% 29.75 in 10.0 mi NW 4.6 mph - N/A   Scattered Clouds
1:51 AM 77.0 °F - 48.9 °F 37% 29.75 in 10.0 mi WNW 4.6 mph - N/A   Clear
2:51 AM 73.9 °F - 50.0 °F 43% 29.73 in 10.0 mi Calm Calm - N/A   Clear
3:51 AM 71.1 °F - 51.1 °F 49% 29.74 in 10.0 mi Calm Calm - N/A   Clear
4:51 AM 72.0 °F - 50.0 °F 46% 29.74 in 10.0 mi West 4.6 mph - N/A   Clear
5:51 AM 70.0 °F - 48.9 °F 47% 29.75 in 10.0 mi West 4.6 mph - N/A   Clear
6:51 AM 72.0 °F - 50.0 °F 46% 29.77 in 10.0 mi North 8.1 mph - N/A   Clear
7:51 AM 75.0 °F - 57.0 °F 53% 29.80 in 10.0 mi North 15.0 mph 19.6 mph N/A   Clear
8:51 AM 78.1 °F - 60.1 °F 54% 29.81 in 10.0 mi NNW 9.2 mph - N/A   Clear
9:51 AM 82.0 °F 82.0 °F 57.9 °F 44% 29.80 in 10.0 mi NNW 10.4 mph - N/A   Clear
10:51 AM 87.1 °F 85.1 °F 54.0 °F 32% 29.79 in 10.0 mi NNW 12.7 mph 17.3 mph N/A   Clear
11:51 AM 89.1 °F - 52.0 °F 28% 29.78 in 10.0 mi Variable 5.8 mph - N/A   Clear
12:51 PM 91.9 °F - 50.0 °F 24% 29.76 in 10.0 mi NNW 9.2 mph 16.1 mph N/A   Scattered Clouds
1:51 PM 93.9 °F - 50.0 °F 22% 29.75 in 10.0 mi WSW 12.7 mph 19.6 mph N/A   Clear
2:51 PM 93.9 °F - 46.9 °F 20% 29.73 in 10.0 mi Variable 6.9 mph - N/A   Clear
3:51 PM 97.0 °F - 46.9 °F 18% 29.71 in 10.0 mi Variable 3.5 mph - N/A   Partly Cloudy
4:51 PM 96.1 °F - 46.9 °F 19% 29.69 in 10.0 mi East 11.5 mph - N/A   Partly Cloudy
5:51 PM 97.0 °F - 43.0 °F 16% 29.68 in 10.0 mi SW 5.8 mph - N/A   Clear
6:51 PM 96.1 °F - 43.0 °F 16% 29.68 in 10.0 mi NW 11.5 mph - N/A   Clear
7:51 PM 91.9 °F - 39.0 °F 16% 29.70 in 10.0 mi NW 10.4 mph - N/A   Clear
8:51 PM 89.1 °F - 39.9 °F 18% 29.72 in 10.0 mi NNW 9.2 mph - N/A   Clear
9:30 PM 82.4 °F 81.7 °F 55.4 °F 39% 29.96 in 10.0 mi North 16.1 mph - N/A   Clear
9:51 PM 80.1 °F 80.4 °F 57.0 °F 45% 29.77 in 10.0 mi North 15.0 mph - N/A   Clear
10:51 PM 78.1 °F - 57.0 °F 48% 29.79 in 10.0 mi North 17.3 mph - N/A   Clear
11:51 PM 75.9 °F - 55.0 °F 48% 29.83 in 10.0 mi NNW 16.1 mph 23.0 mph N/A   Partly Cloudy